{"data":{"norad_id":40748,"intl_designator":"2015-037A","name":"BEIDOU-3S M2S (C58)","alt_names":[],"object_type":"PAYLOAD","status":"INACTIVE","operator":null,"country":"PRC","launch_date":"2015-07-25","launch_site_code":"XICLF","launch_vehicle":null,"mission":null,"orbit_class":"UNKNOWN","rcs_meters":16.1785,"size_class":null,"mass_kg":null,"dimensions":null,"purposes":["nav"],"wikipedia_slug":null,"has_3d_model":false,"image_url":null,"decayed_at":null,"tle_current":{"epoch":"2026-05-23T14:58:03.951840Z","epoch_age_seconds":200859,"freshness":"STALE","line1":"1 40748U 15037A   26143.62365685 -.00000076  00000+0  00000+0 0  9998","line2":"2 40748  54.8929 302.8909 0007595 263.8817  96.0113  1.86231735 73662","mean_motion":1.86231735,"eccentricity":0.0007595,"inclination_deg":54.8929,"raan_deg":302.8909,"arg_perigee_deg":263.8817,"mean_anomaly_deg":96.0113,"bstar":0,"rev_number":7366,"period_min":773.23019086946,"perigee_km":21506.783444564,"apogee_km":21549.17283346,"semimajor_km":27906.115139012,"source":"CELESTRAK","updated_at":"2026-05-25T13:38:24.213794Z"}}}